RH
96 93 89 83 78 78 79 83 87 89 91 92 89 81 76 83 93 93 85 71 55 49 51 50 51 56 59 58 56 52 49 46 44 43 44 44 45 48 50 50 49 50 51 51 50 49 48 46 45 46 48 47 47 52 55 54 54 55 55 53 51 50 48 41 33 30 31 33 35 38 41 42 43 43 44 46 46 47 47 47 47 46 45 43 40 38
93 91 86 82 84 85 87 91 93 91 88 87 83 78 78 85 93 91 79 66 54 48 50 51 52 57 60 57 53 50 48 45 46 47 47 47 49 52 52 51 51 53 52 50 48 47 46 46 47 48 47 48 53 57 55 54 57 57 53 49 47 44 38 32 30 33 37 40 42 42 44 45 46 47 47 49 50 51 50 49 47 46 45 44 43 43
92 91 88 90 93 92 92 96 97 93 87 84 82 79 82 89 93 90 77 63 53 48 50 51 51 57 63 61 54 51 50 48 49 51 50 50 53 55 54 53 54 53 50 47 46 46 47 47 48 48 49 54 59 58 57 57 55 50 45 42 39 36 33 34 37 41 43 44 44 44 46 48 50 52 53 54 55 54 51 49 47 47 47 48 50 53
94 94 96 98 97 95 98 101 100 96 91 87 85 81 85 92 93 88 77 64 55 50 49 49 50 54 63 68 62 55 52 51 53 53 50 53 57 57 55 52 51 48 46 46 47 47 47 48 49 49 52 58 61 60 57 52 44 40 39 38 38 38 40 42 44 45 45 46 47 48 50 52 54 55 55 56 55 52 49 47 47 49 52 55 57 58
99 102 103 99 93 96 102 102 99 98 94 90 88 84 88 96 95 87 74 62 55 53 51 49 48 50 60 71 69 62 57 54 54 52 51 53 55 53 49 46 46 46 47 48 48 49 49 50 49 51 56 61 61 54 46 40 40 43 44 43 44 45 46 46 46 46 47 47 48 49 50 51 52 52 52 52 53 53 52 53 55 56 57 58 58 59
104 103 99 93 93 100 103 100 99 98 95 93 91 88 91 97 95 86 70 56 51 52 54 52 48 48 58 68 68 63 58 54 53 50 48 50 48 46 43 43 45 47 49 52 53 53 51 50 50 54 58 57 51 43 42 46 50 51 49 48 47 47 47 46 46 46 46 47 47 48 49 50 52 53 55 56 57 58 60 60 61 60 59 59 61 64
102 96 92 93 101 106 104 101 101 98 95 97 96 92 94 95 91 81 64 50 47 48 53 55 50 46 52 62 63 59 55 53 52 48 47 47 44 42 42 44 47 50 57 62 60 55 50 50 52 54 52 48 45 47 53 57 55 53 50 49 48 47 46 45 45 45 46 47 49 51 54 56 57 58 58 59 60 61 61 62 63 64 64 65 66 68
96 92 96 102 108 110 106 104 102 99 96 97 97 94 94 92 84 71 55 46 45 45 51 55 51 46 49 57 60 56 53 52 50 46 44 42 41 42 44 46 52 61 69 68 59 51 48 49 50 49 48 48 52 55 56 55 53 52 49 48 47 46 45 46 47 48 50 53 55 57 58 58 59 60 60 61 63 64 65 67 68 70 71 72 73 73
95 99 104 108 110 109 108 106 103 99 95 93 94 92 89 84 73 58 46 43 43 43 48 52 50 47 47 55 58 53 50 49 46 42 42 42 43 43 46 54 64 70 68 59 50 47 49 51 50 49 52 53 54 53 52 52 51 49 48 47 48 48 48 50 51 53 54 55 56 58 59 60 62 64 66 68 69 71 73 74 75 76 78 78 78 77
101 104 106 108 109 108 108 107 103 97 93 92 91 88 82 72 57 44 39 42 42 42 45 46 46 46 47 54 56 51 49 48 44 43 44 44 45 49 60 71 70 61 51 46 47 51 54 55 54 53 54 53 52 52 51 50 48 48 49 50 51 52 52 53 54 55 56 56 57 59 61 64 68 70 73 75 77 79 79 80 80 80 79 78 76 74
107 109 108 107 108 109 109 105 99 95 94 91 87 79 67 54 42 37 38 40 40 39 41 42 44 46 47 51 51 49 50 49 46 45 45 46 52 64 72 66 52 43 42 46 52 56 57 55 53 53 53 52 51 51 50 50 50 51 52 53 54 55 56 57 58 58 58 58 60 62 66 70 75 78 81 83 83 84 83 81 80 78 76 74 72 70
107 109 108 107 106 106 104 100 97 95 93 85 74 61 47 39 36 35 37 38 38 38 38 40 43 45 47 48 49 50 51 51 51 49 49 53 62 67 59 45 38 41 46 51 53 54 53 52 53 53 51 51 50 50 51 52 52 53 54 56 58 60 61 60 60 61 61 64 67 70 75 79 82 84 85 85 83 81 79 77 75 74 72 70 70 69
108 108 106 104 102 101 100 98 95 89 79 66 54 44 36 34 33 34 35 37 37 36 37 39 43 46 48 50 54 59 62 63 60 54 52 57 60 53 42 38 42 46 49 51 51 51 51 52 52 51 51 52 52 52 52 52 53 55 57 59 61 63 63 63 64 67 70 74 77 79 82 83 83 82 81 80 77 74 72 72 70 69 67 66 67 66
109 108 106 103 102 102 102 98 88 73 58 48 42 37 35 34 33 33 35 35 36 37 38 41 45 49 56 66 74 74 69 60 51 47 50 53 52 46 42 45 50 51 52 51 50 50 50 50 50 51 51 52 52 52 52 54 55 57 59 60 61 63 65 68 71 74 77 79 80 81 82 81 78 76 74 72 69 66 65 64 64 62 61 59 59 58
110 109 107 106 105 105 102 90 71 53 42 39 39 37 36 36 33 33 34 35 37 37 39 46 54 65 78 88 84 67 51 41 39 44 50 52 51 48 47 51 52 51 50 49 49 49 48 48 49 49 50 50 52 54 55 57 58 59 61 61 64 67 69 73 75 77 79 79 79 79 78 76 72 69 66 63 59 56 54 54 53 51 49 48 46 44
108 109 109 110 109 100 86 68 49 40 38 38 38 38 37 37 35 35 34 35 37 39 49 64 72 80 88 84 66 47 38 39 44 49 52 53 52 49 49 51 51 49 48 48 49 49 49 50 50 50 52 53 55 57 59 60 61 62 64 66 69 72 73 75 77 78 79 78 77 75 72 69 65 61 57 53 50 47 44 42 39 37 34 32 29 26
94 103 110 108 100 81 60 48 41 39 38 36 37 37 36 36 36 35 34 39 47 50 56 66 67 68 72 65 50 42 43 47 51 52 53 54 51 50 51 52 51 52 53 54 54 54 55 55 56 57 59 60 61 62 63 64 65 66 68 70 72 75 77 79 79 79 78 76 73 68 64 59 54 50 46 42 38 35 31 28 24 21 19 17 16 14
76 83 92 86 70 54 43 41 40 39 38 37 38 37 35 35 35 38 43 50 55 48 43 48 50 55 63 58 46 45 49 51 51 52 53 52 50 51 54 55 57 60 61 61 61 62 62 62 65 68 69 69 67 66 66 68 70 72 74 76 78 80 81 80 78 75 72 67 62 56 50 45 40 36 31 27 23 20 17 15 13 12 12 12 12 11
56 56 63 58 48 43 42 42 41 41 39 38 38 37 37 38 40 44 47 48 45 36 35 39 44 59 68 57 45 48 51 49 50 53 53 52 52 55 59 62 65 66 65 66 67 68 69 72 75 76 74 72 71 71 73 74 77 80 83 86 87 86 84 79 73 66 59 53 47 41 35 30 25 21 17 15 13 12 12 11 11 11 12 13 13 13
41 40 44 45 45 45 44 43 40 39 39 39 41 41 41 41 41 40 40 42 38 35 38 38 42 62 66 50 45 50 49 48 51 53 53 54 58 61 64 65 65 64 64 66 67 69 72 74 75 72 70 69 70 73 76 80 84 88 91 92 90 85 79 71 62 53 45 37 31 25 21 17 15 13 12 12 12 12 12 12 13 13 13 14 14 13
38 39 42 44 45 43 42 42 40 41 41 42 42 39 36 36 36 36 39 44 43 41 44 40 43 58 56 45 48 49 45 48 52 53 56 61 64 65 64 63 62 62 63 63 64 66 68 68 66 64 65 67 70 74 79 84 89 91 92 88 82 74 65 56 47 37 30 24 19 17 15 14 14 13 14 14 14 14 13 13 13 12 12 12 12 11
38 39 41 42 43 44 45 42 38 37 37 35 34 33 33 36 38 39 41 45 46 48 48 42 45 56 55 50 51 46 46 53 56 58 63 66 67 66 66 65 63 60 60 60 62 64 63 62 62 64 67 70 74 78 83 87 89 87 84 77 67 57 47 38 30 24 20 18 16 16 15 15 16 16 16 16 14 13 12 11 11 10 9 9 9 9
35 37 40 44 46 47 41 33 29 32 34 35 35 36 39 42 44 44 45 46 46 48 48 43 45 52 55 55 51 46 52 58 60 63 64 66 68 68 67 65 61 59 60 62 65 65 63 62 65 68 72 75 79 83 86 87 84 78 69 60 48 38 30 24 20 18 17 17 17 17 17 16 16 15 14 13 11 11 10 9 8 8 8 7 7 7
38 40 40 41 43 40 33 29 33 40 43 42 42 42 44 48 49 49 49 47 46 47 47 46 45 47 55 59 52 49 57 61 63 64 64 67 70 70 69 65 62 63 67 69 68 66 65 67 71 74 76 79 82 85 84 78 70 59 49 39 31 25 21 19 18 18 17 17 16 16 15 14 13 12 11 10 9 9 8 8 7 7 7 7 7 7
41 38 34 33 36 37 38 43 50 54 53 50 49 50 53 54 53 53 53 52 50 49 50 52 50 54 64 63 55 57 64 66 67 69 72 75 75 73 70 66 67 71 74 73 71 69 71 74 76 77 77 78 78 74 67 57 47 38 31 25 22 19 18 18 17 17 16 15 14 13 12 11 11 11 10 10 9 8 8 7 7 7 7 7 6 6
38 36 34 34 34 34 40 49 55 57 56 55 56 57 58 58 57 58 59 57 53 50 55 60 57 61 71 68 61 66 70 69 72 76 78 79 77 75 71 68 71 74 73 72 71 71 73 74 73 72 71 69 62 53 43 35 30 25 21 20 18 17 17 17 16 15 14 12 11 10 10 10 11 11 10 9 9 8 8 7 7 7 6 6 6 6
40 42 41 40 37 36 42 47 49 51 52 54 56 57 58 58 59 62 61 60 57 55 61 66 61 63 73 71 66 69 70 68 70 72 74 77 79 78 72 68 70 71 69 68 68 67 67 66 66 64 59 51 42 34 29 25 22 20 19 18 18 17 16 15 14 13 11 10 9 9 9 9 10 9 9 8 8 7 7 7 7 7 6 6 6 6
44 46 46 48 45 41 46 50 50 51 52 52 55 56 56 56 59 62 61 61 63 62 65 70 67 67 70 68 65 65 64 63 66 70 74 79 81 75 67 65 67 68 67 66 65 64 62 60 58 52 44 37 31 26 23 20 19 18 18 17 16 15 14 12 11 10 10 9 9 8 8 8 8 8 8 7 7 6 6 6 6 6 6 5 5 5
44 48 49 53 52 46 48 52 52 52 52 51 53 54 55 56 57 60 62 66 70 70 70 70 68 67 64 61 62 63 63 66 70 75 80 82 78 69 62 64 67 67 67 66 65 62 59 55 49 40 33 28 24 21 19 19 19 18 18 17 16 14 12 10 9 9 10 10 10 9 8 7 7 7 6 6 6 6 6 6 6 6 5 5 5 5
45 48 50 56 61 56 53 55 55 54 54 54 55 55 55 57 57 60 66 73 76 74 71 68 66 65 62 62 66 71 73 75 78 82 85 84 76 67 64 67 69 70 69 67 63 59 54 47 38 29 24 21 19 18 19 19 19 19 18 17 15 13 11 10 10 10 10 10 10 8 7 7 6 6 6 6 6 6 5 5 5 5 5 5 5 5
45 49 51 59 68 67 61 61 61 59 59 58 58 58 58 58 58 60 68 77 79 75 72 69 66 65 68 72 77 82 82 82 84 86 86 82 74 69 70 72 72 70 66 61 56 50 43 34 25 20 18 18 19 19 19 19 19 18 17 15 13 12 11 11 10 10 10 9 9 8 6 6 5 5 5 5 5 5 5 5 5 5 4 4 4 4
47 52 55 59 69 73 69 67 66 63 61 60 59 59 58 56 56 61 70 80 81 73 70 69 67 69 76 80 82 84 85 84 83 83 82 79 75 73 75 73 68 64 58 52 45 36 27 21 18 17 18 19 20 20 20 19 17 16 14 13 13 12 11 10 9 8 8 8 7 6 5 5 5 5 5 5 5 5 5 5 4 4 4 4 3 3
52 55 57 59 66 72 69 66 66 63 60 58 58 58 56 56 58 64 74 83 80 72 69 69 69 72 76 78 78 79 80 78 75 76 81 81 75 71 69 65 60 56 49 42 32 23 19 17 17 18 20 20 21 20 18 16 14 13 13 12 12 11 10 9 8 7 7 6 6 6 5 5 5 4 4 4 5 5 4 4 4 3 3 3 3 3
55 56 58 59 63 66 66 64 63 60 58 57 57 56 54 55 60 68 77 82 79 74 72 70 70 74 78 79 78 75 72 68 69 78 87 85 76 68 63 58 54 48 40 31 23 18 17 18 19 20 21 20 19 16 14 13 12 11 11 11 11 10 9 8 7 6 6 6 6 5 5 5 5 4 4 4 4 4 4 4 3 3 3 3 3 3
55 57 59 60 61 62 62 61 59 58 57 57 55 53 52 55 63 73 83 87 82 76 76 77 79 82 83 81 78 72 67 66 72 84 91 87 77 69 62 55 48 39 30 22 17 17 18 19 20 20 19 17 15 13 12 11 11 11 11 11 10 9 8 7 6 6 6 6 6 5 5 5 5 5 4 4 4 3 4 4 4 3 3 3 3 3
54 57 59 60 61 61 60 60 59 57 56 55 54 52 55 65 77 84 90 95 90 82 80 81 80 80 78 75 72 69 67 67 74 85 89 82 75 68 60 51 40 28 20 16 15 17 19 19 18 16 14 13 12 11 11 11 11 11 11 11 10 9 8 6 6 5 6 6 6 5 5 4 5 5 5 4 3 3 3 4 4 3 3 3 3 3
60 64 65 64 62 61 60 60 60 58 57 57 56 57 65 80 89 86 83 87 87 81 78 75 71 70 68 67 68 71 71 70 74 81 83 76 70 63 53 41 30 20 16 15 16 18 18 17 15 12 11 10 10 10 10 10 10 10 10 10 9 8 7 6 6 6 6 6 6 6 5 4 5 5 4 3 4 4 4 4 4 4 3 3 4 3
70 69 67 64 63 63 63 62 61 59 58 58 60 68 79 87 86 78 75 79 81 78 74 68 64 62 62 66 72 76 74 67 63 67 69 64 60 54 43 31 22 18 17 17 17 16 16 15 12 10 10 9 9 9 9 9 9 9 9 8 7 7 6 6 6 6 6 6 7 6 5 5 4 4 4 3 3 4 4 4 4 4 4 3 4 3
70 67 66 66 67 67 66 64 61 58 58 63 72 81 86 85 79 76 76 78 77 74 69 65 63 64 67 72 76 75 68 57 48 46 47 45 42 38 30 22 18 18 19 19 18 15 14 13 11 10 10 9 9 9 9 8 8 8 7 7 6 6 6 5 6 6 6 6 7 6 6 5 4 4 3 3 3 3 4 4 3 4 3 3 3 3
69 69 70 72 72 70 67 64 60 59 66 77 86 89 85 79 77 75 74 71 70 69 68 67 69 72 73 73 70 65 58 48 39 32 29 26 23 21 18 17 17 18 18 18 17 15 13 12 12 11 10 10 9 8 8 8 8 7 7 6 6 6 6 5 6 6 6 6 6 6 5 4 4 4 3 3 3 3 3 3 3 3 3 3 3 3
72 74 74 73 71 69 64 59 60 69 82 91 91 86 79 75 72 70 68 67 66 65 66 69 72 72 68 64 59 55 51 45 37 30 23 17 15 15 16 18 18 18 17 15 14 12 12 12 12 12 10 9 8 8 7 7 7 7 7 6 6 6 6 6 6 6 6 6 5 5 4 4 4 4 3 4 3 3 4 3 3 3 3 3 3 3
76 75 72 70 68 63 59 60 70 84 92 91 86 80 75 70 64 61 62 65 66 66 67 69 70 66 60 55 52 51 49 44 37 28 20 16 16 17 18 18 17 16 14 13 12 12 11 12 12 11 10 9 8 7 7 6 6 7 7 6 6 6 6 6 6 6 6 5 5 4 4 3 4 4 4 4 3 3 4 3 3 3 3 3 3 3
74 71 69 66 61 58 62 73 84 90 88 81 76 71 67 62 59 57 58 63 68 71 70 67 64 60 56 52 50 49 44 36 28 21 17 17 18 18 17 16 14 13 12 11 11 11 10 10 10 10 9 8 7 6 6 5 6 6 7 6 6 6 6 6 6 6 5 5 4 4 3 3 3 4 4 3 3 3 3 3 3 3 3 3 3 3
70 67 63 58 56 64 78 88 88 83 76 68 63 60 59 59 58 57 60 66 70 71 67 63 60 57 53 48 43 37 30 22 17 16 16 16 15 15 14 12 12 11 10 10 10 9 9 9 9 8 8 7 6 6 5 5 5 6 6 6 6 6 7 7 6 5 5 5 4 4 3 3 3 4 3 3 3 3 3 3 3 3 3 3 3 3
65 59 56 59 69 81 87 84 75 68 64 62 62 63 64 66 67 69 72 73 72 68 63 59 55 50 43 35 27 21 17 15 14 14 14 13 12 12 11 11 10 10 9 9 8 8 8 7 7 7 7 6 6 5 5 5 5 5 6 6 6 7 7 6 6 5 4 4 4 3 3 3 3 3 3 3 3 3 3 3 3 3 3 3 3 3
57 56 62 75 83 83 75 67 65 65 68 71 73 74 76 80 82 82 79 74 68 63 58 52 45 37 28 21 16 14 13 13 12 12 12 11 11 10 10 9 9 9 8 8 7 7 7 6 6 6 6 6 6 5 5 5 5 5 5 6 6 6 6 5 5 4 4 4 4 3 3 3 4 3 3 3 3 3 3 3 3 3 3 3 3 3
57 68 79 82 77 70 65 65 69 74 77 79 81 83 87 91 88 81 74 66 59 54 47 39 31 23 17 14 13 13 13 12 11 11 10 10 9 9 9 8 8 8 7 7 6 6 5 5 5 5 5 6 6 5 5 5 5 5 5 5 5 6 5 5 4 4 4 4 3 3 3 3 3 3 3 3 3 3 3 3 3 3 3 3 3 3
74 80 78 72 67 65 66 68 75 83 88 89 90 89 87 82 75 68 62 55 48 41 33 26 19 15 14 14 13 13 12 11 10 10 9 8 8 8 7 7 7 6 6 6 6 5 5 5 5 5 5 5 5 5 5 5 5 5 5 4 5 5 4 4 3 3 4 4 4 4 3 3 4 3 3 3 3 3 3 3 3 3 3 3 3 3
78 72 64 62 65 70 73 78 85 93 96 94 89 82 73 65 60 57 52 45 37 28 21 16 15 15 16 15 13 12 11 10 9 9 8 8 7 7 7 6 6 5 5 5 5 5 5 5 5 5 5 5 5 5 5 5 5 5 4 4 4 4 4 3 3 3 3 4 4 3 4 4 4 4 3 3 3 3 3 3 3 3 4 3 3 3
65 61 61 65 72 78 83 85 85 84 83 78 71 65 60 56 53 48 40 31 23 17 15 15 15 16 16 15 13 11 9 8 8 8 8 7 7 6 6 5 5 5 5 5 5 5 5 5 5 5 5 5 5 5 5 5 4 4 3 3 3 3 3 3 3 4 3 4 4 3 4 4 4 4 4 3 3 3 3 3 4 3 3 3 3 3
62 66 70 73 77 80 80 79 75 71 67 62 58 54 51 47 40 32 24 19 16 15 15 15 14 14 13 12 11 10 9 9 8 8 7 6 6 5 5 5 5 5 5 5 5 5 5 5 5 5 4 4 4 4 4 3 3 3 3 3 3 3 3 3 3 4 3 4 4 3 3 4 4 3 3 3 3 3 3 3 4 3 3 3 3 2
Wind_Speed
47 48 49 47 47 47 47 44 41 41 43 44 45 46 47 47 46 46 45 45 46 45 47 50 49 51 56 59 61 61 60 61 61 62 64 66 67 68 70 71 71 73 74 75 76 77 78 79 81 81 82 82 81 81 80 78 77 75 74 73 71 69 66 63 59 56 55 56 56 57 57 58 59 60 61 62 64 66 67 69 71 73 75 78 80 82
48 47 46 45 46 47 45 43 42 43 44 45 46 47 48 47 45 45 45 45 46 45 47 50 50 52 57 60 62 62 62 62 63 64 66 68 69 70 71 72 72 74 75 75 77 78 79 80 81 82 82 81 79 79 77 76 74 73 72 69 66 64 61 58 56 55 56 57 59 59 60 62 63 64 65 66 68 70 72 73 75 77 78 80 82 84
45 45 45 46 48 47 45 44 44 45 46 47 48 49 49 48 45 45 46 46 47 47 48 50 51 53 57 61 62 63 63 64 65 67 68 69 71 71 72 72 73 74 75 76 78 79 80 81 82 82 80 78 77 76 75 74 72 70 67 64 61 59 58 57 57 58 59 61 62 63 63 65 66 67 69 71 72 74 76 77 78 80 81 82 84 86
45 46 47 48 48 46 45 46 46 47 48 49 50 50 51 49 46 45 47 48 48 48 49 51 51 53 57 62 63 64 65 65 67 69 70 71 72 72 72 73 73 74 75 77 78 80 80 81 81 79 77 75 75 74 72 70 67 64 61 59 58 58 59 60 61 62 63 64 65 65 66 68 69 70 72 74 76 77 79 80 81 82 83 84 86 89
47 48 49 48 47 46 46 47 47 47 48 50 51 52 52 49 47 46 47 48 48 50 52 53 53 52 56 63 65 65 66 66 68 69 71 72 72 72 72 73 74 75 76 77 79 80 80 80 78 76 74 73 72 70 67 64 61 60 60 60 60 61 62 63 64 65 66 67 68 69 70 71 72 73 75 76 78 80 81 83 84 85 86 87 89 92
49 49 49 48 47 47 47 48 48 48 49 51 53 54 52 49 47 47 48 48 48 50 52 56 56 52 56 64 67 67 67 67 68 69 71 72 72 72 73 73 74 75 76 77 78 79 79 77 75 73 70 68 67 65 62 61 60 61 62 63 64 65 66 67 68 69 70 70 71 72 73 74 75 76 78 79 81 82 83 85 87 88 89 90 92 94
49 49 48 47 46 47 47 49 49 50 50 51 54 55 52 48 47 48 49 49 49 50 51 57 59 54 55 64 68 68 68 68 68 70 71 72 72 73 73 74 74 75 75 76 77 77 76 74 71 67 65 64 62 62 62 62 64 65 66 67 68 69 70 70 71 71 72 73 74 75 76 77 78 80 81 83 85 86 87 88 90 92 93 94 95 97
49 48 47 46 46 47 48 50 51 52 51 52 55 55 51 48 48 49 49 50 50 50 51 56 60 57 56 64 69 69 68 68 69 71 72 72 72 73 73 73 73 73 74 75 75 74 71 67 64 62 62 63 63 63 65 66 68 69 70 71 71 72 73 73 73 74 75 75 77 78 80 81 83 84 85 87 89 90 92 93 95 96 97 98 98 100
49 46 46 46 47 48 49 51 52 53 53 55 56 54 50 49 49 49 49 50 51 50 51 55 59 59 58 64 70 69 68 69 70 72 73 73 73 73 72 71 71 72 73 73 71 67 64 62 61 62 64 65 66 67 68 70 71 72 73 73 74 75 75 76 76 77 78 79 80 82 83 85 87 88 90 92 93 95 96 97 99 100 101 102 102 103
47 45 45 46 48 49 50 52 53 55 56 56 55 51 50 49 48 48 48 50 51 51 52 55 57 58 58 64 71 70 69 70 71 73 73 72 72 71 69 69 70 71 69 66 63 61 60 61 63 65 67 69 70 71 72 73 74 74 75 76 76 78 78 79 80 81 82 83 84 86 87 89 91 92 94 95 97 98 100 101 102 103 104 105 105 106
46 46 46 48 49 50 52 53 55 56 57 55 52 50 50 49 48 47 48 51 52 51 52 54 57 59 60 64 70 71 71 71 71 72 71 70 69 68 67 68 67 64 61 60 59 60 62 65 66 68 69 71 72 73 74 75 76 77 78 78 79 81 82 83 84 85 86 87 89 90 91 93 95 96 98 99 100 102 103 104 105 106 106 107 108 108
46 47 48 49 50 51 53 55 56 56 55 53 51 51 50 49 49 47 48 51 52 51 52 54 56 59 61 65 69 71 72 71 69 69 69 68 67 65 64 62 60 58 58 59 61 64 66 67 69 70 71 73 74 75 76 77 78 79 80 81 83 85 87 88 89 90 91 92 93 95 96 97 99 100 101 103 103 104 105 106 107 108 108 109 109 110
48 49 49 50 51 53 55 56 55 53 52 52 52 53 51 49 49 47 47 50 51 51 52 54 57 59 62 65 68 69 69 68 68 68 66 64 62 60 59 58 59 60 61 63 65 67 68 69 70 72 73 74 76 77 78 79 80 82 84 85 87 89 91 92 93 95 96 97 98 99 101 102 103 104 105 106 107 107 108 108 109 110 110 110 110 111
50 50 51 52 53 56 56 55 53 52 52 52 53 54 53 52 51 48 48 49 50 51 51 54 57 58 61 64 66 67 67 66 65 62 59 59 59 59 59 60 61 63 65 67 68 69 71 72 73 74 75 76 78 79 81 82 84 86 88 89 91 93 95 96 98 99 100 102 103 104 105 106 107 108 108 109 110 110 110 110 111 111 111 111 111 111
50 51 52 54 55 56 55 54 53 52 52 52 53 54 54 56 55 52 50 50 50 50 49 51 54 55 59 64 66 65 63 60 58 56 57 58 60 61 62 62 64 65 67 69 70 72 73 74 75 76 78 80 81 83 85 87 88 90 92 94 95 97 99 101 102 103 104 106 107 108 109 110 111 111 111 112 112 112 111 111 112 111 111 110 110 109
49 50 53 54 54 54 53 53 53 52 52 52 53 55 55 56 57 56 54 52 52 48 44 46 50 53 59 63 62 60 57 55 56 57 59 61 62 64 64 65 67 68 70 71 72 74 76 77 79 81 83 84 86 88 90 92 93 95 97 98 100 101 103 105 106 107 108 109 110 111 112 113 113 113 113 113 113 112 112 112 111 110 109 109 108 107
47 48 51 52 52 53 53 52 52 52 53 53 53 55 56 56 57 57 54 52 52 47 42 42 45 49 56 58 56 55 55 56 58 59 61 63 65 66 67 68 70 71 73 74 76 77 79 82 84 86 88 89 91 93 94 96 98 100 101 102 104 105 107 108 109 110 111 112 113 113 114 114 114 114 113 112 112 111 111 110 109 108 106 105 104 102
44 45 48 51 51 52 51 51 52 53 54 54 55 56 56 55 56 56 53 50 48 43 37 36 39 46 54 56 54 55 56 58 60 62 65 66 67 68 70 72 73 74 76 78 81 83 85 87 89 91 93 94 96 98 99 101 103 105 106 107 108 109 110 111 112 113 113 114 114 114 114 114 113 112 112 110 109 108 107 106 105 103 101 100 99 98
43 43 46 50 51 51 51 52 53 54 55 55 56 56 56 55 54 52 49 45 41 36 33 33 36 45 56 58 56 56 58 60 62 65 68 69 70 71 73 75 76 78 81 83 86 88 90 92 94 95 97 99 101 103 105 107 108 110 111 112 113 114 114 115 115 114 114 114 113 113 112 112 111 110 108 107 105 103 102 101 100 98 97 96 96 94
43 42 43 47 50 51 52 53 54 54 55 55 56 56 55 53 49 45 42 41 39 37 37 36 36 45 57 58 56 58 60 62 64 67 70 72 73 74 75 77 79 81 84 87 89 92 94 96 98 99 101 103 105 107 109 111 112 114 115 116 116 116 116 116 116 115 114 113 112 111 110 109 107 106 104 103 101 99 98 97 96 94 93 93 92 91
42 42 42 46 49 50 52 53 53 54 54 54 53 51 47 44 41 38 38 41 43 42 42 40 39 48 58 59 58 60 62 64 67 69 72 74 76 78 79 81 83 85 88 90 93 95 97 99 101 104 106 108 109 111 112 114 115 116 117 117 118 117 117 116 115 114 113 112 111 109 108 106 105 103 102 100 99 98 96 95 93 92 91 90 89 88
41 42 43 45 48 50 52 52 52 51 49 47 44 41 39 38 38 38 39 42 45 46 48 46 44 51 60 62 62 64 66 68 70 72 74 77 80 81 83 86 88 90 92 95 97 99 101 104 106 108 110 111 113 114 115 116 116 117 117 117 117 116 115 114 112 111 110 109 108 107 105 103 102 101 100 99 98 96 95 94 92 91 89 88 87 85
41 41 42 44 47 48 48 45 43 41 39 38 37 37 38 39 41 42 42 44 46 50 53 53 51 55 62 65 66 68 69 72 74 76 78 80 83 86 88 90 93 95 98 100 102 104 107 108 110 112 114 115 116 116 117 117 117 116 116 115 114 113 112 111 109 108 107 106 105 103 102 100 99 98 98 97 96 95 94 92 91 89 88 86 85 84
40 41 40 40 41 42 40 36 35 35 35 36 38 39 41 43 45 47 48 49 50 53 57 58 57 59 64 67 69 70 72 75 78 81 83 85 87 90 93 95 98 100 103 105 107 109 112 113 115 116 117 118 118 118 117 116 115 114 113 113 111 110 109 108 106 105 104 102 101 99 98 97 97 97 97 96 95 94 92 91 89 88 87 85 83 82
38 37 33 30 31 33 34 33 34 36 38 40 41 43 45 47 50 51 53 54 55 57 61 63 62 63 68 72 73 74 76 78 82 85 88 90 93 95 97 99 102 104 107 109 111 114 116 118 119 120 120 119 118 117 115 114 113 112 111 109 108 106 105 103 102 101 100 99 98 97 96 96 96 96 96 95 94 93 91 90 89 87 86 84 82 80
32 30 27 26 27 29 30 32 35 37 40 43 45 47 49 51 54 56 57 58 59 59 63 67 66 66 71 76 77 79 81 83 86 89 92 95 98 100 102 103 105 108 110 113 115 117 118 120 121 121 120 118 116 114 112 110 109 108 107 106 104 103 101 99 99 99 98 97 96 94 93 93 93 93 93 93 93 91 90 89 88 87 85 83 81 80
26 27 28 29 30 30 31 34 36 39 42 44 47 50 52 55 58 60 62 63 64 63 64 69 71 70 73 78 81 83 85 87 89 92 95 99 102 103 105 106 108 111 113 116 118 119 121 121 121 120 118 116 113 111 109 108 106 104 103 102 101 100 98 97 96 97 97 96 94 92 90 90 90 90 90 90 90 89 88 87 86 85 84 82 80 79
25 28 30 32 33 33 34 37 39 41 44 47 50 53 56 58 61 64 66 67 68 68 68 71 75 75 77 81 83 86 89 91 93 96 99 102 105 106 107 109 112 114 117 119 121 122 122 122 120 117 115 113 111 109 107 105 103 101 100 100 99 98 97 96 95 95 94 94 93 91 89 88 88 87 87 87 86 85 84 84 83 83 81 80 78 77
25 29 32 36 38 37 37 40 43 45 48 50 52 55 58 61 64 66 70 71 72 73 73 74 77 80 83 84 87 90 93 95 98 100 103 106 109 110 111 113 116 118 121 122 123 124 123 121 118 115 112 110 107 105 102 101 100 100 100 100 100 99 99 97 95 94 92 93 93 92 90 89 87 85 84 84 83 82 81 80 80 80 79 78 77 76
27 31 34 38 42 43 43 45 48 49 52 55 57 59 61 64 67 70 73 75 76 77 78 79 80 84 87 89 91 94 97 100 102 104 107 110 113 115 116 118 120 122 124 125 125 124 121 119 115 112 108 105 103 101 100 99 99 99 99 99 99 99 99 98 95 93 92 91 91 91 89 87 85 83 81 80 79 78 77 77 77 77 77 77 76 75
30 33 35 39 44 48 48 50 53 54 56 59 61 64 66 68 70 73 76 79 80 80 82 84 86 88 91 93 94 97 101 104 107 109 111 115 118 119 121 122 124 125 126 126 124 121 118 115 111 107 104 102 101 101 100 99 98 98 98 98 97 97 97 95 93 91 89 89 88 88 87 84 82 81 78 76 75 75 75 75 74 74 75 74 74 73
33 35 38 40 45 50 53 54 57 59 60 62 65 67 70 71 73 75 79 83 84 84 85 88 90 92 93 95 97 99 103 107 111 114 116 119 121 122 124 126 127 128 127 125 121 117 114 110 107 104 102 101 101 101 100 99 97 96 96 95 95 95 94 93 91 88 86 86 85 85 84 82 80 78 75 72 71 71 72 72 72 72 72 72 71 70
36 38 40 43 46 51 55 57 60 62 63 66 68 71 73 75 76 78 82 87 89 89 90 92 94 95 98 99 101 103 105 109 114 118 121 123 124 125 127 129 130 129 126 123 118 114 111 108 104 102 102 101 100 99 98 97 96 94 93 93 93 93 93 92 90 87 85 83 83 83 81 79 78 76 72 69 67 67 68 69 69 69 69 68 67 66
39 41 44 46 48 52 57 60 63 65 67 69 72 74 76 77 78 80 84 89 92 94 95 97 99 100 103 105 107 107 108 111 116 121 125 128 130 130 131 131 130 128 124 119 115 112 110 107 104 102 101 101 100 98 97 96 94 92 91 91 91 92 92 91 89 86 84 82 82 81 78 76 75 74 71 67 64 64 65 66 66 66 66 65 64 63
42 45 47 50 52 55 59 62 65 67 70 72 75 77 79 80 81 83 85 91 95 97 98 101 103 104 107 109 111 113 113 115 119 124 128 131 133 135 134 133 129 124 119 115 111 108 107 105 102 101 100 99 99 97 95 94 92 91 90 90 91 91 91 90 88 84 82 81 81 80 77 73 71 72 71 68 64 62 61 62 64 64 63 63 62 61
46 49 51 54 56 59 62 65 69 71 73 76 78 80 81 83 85 86 87 92 97 99 100 102 105 107 110 112 115 117 118 119 121 126 132 134 135 136 135 132 127 120 114 110 107 105 104 103 101 99 98 97 97 95 94 92 91 89 89 90 91 91 90 88 86 83 80 79 79 79 76 71 68 68 70 69 66 63 60 59 61 62 61 61 60 60
50 53 56 58 61 63 65 69 72 75 77 80 82 83 84 85 88 89 89 92 97 101 103 105 108 110 113 116 118 121 122 122 124 128 133 136 136 136 133 129 124 119 113 109 106 105 105 103 100 98 97 95 94 94 92 91 89 88 88 89 89 89 88 87 84 81 78 76 76 76 75 71 67 66 67 67 66 64 61 59 59 59 59 59 59 59
54 58 60 63 65 67 70 72 75 77 80 82 84 86 87 89 91 94 94 96 100 104 107 110 112 114 117 120 122 124 126 126 125 128 133 135 135 133 130 125 121 118 114 109 106 104 104 104 102 100 98 95 93 92 91 90 89 88 87 88 87 87 86 84 82 79 75 73 73 73 73 71 68 66 67 66 64 62 60 59 58 57 57 58 58 58
59 61 64 67 69 72 75 77 80 81 82 84 86 88 90 92 95 98 99 101 104 109 112 115 117 119 121 124 126 128 130 130 127 127 129 130 130 128 125 121 117 115 113 111 109 106 104 104 103 101 99 96 93 92 91 90 89 88 87 86 86 85 84 82 79 76 73 70 70 70 70 69 68 67 67 66 63 61 60 58 57 55 55 56 56 56
62 65 68 71 73 76 79 81 83 85 86 88 89 91 93 96 99 102 104 105 108 112 116 119 121 123 125 127 130 132 134 134 132 129 127 125 123 122 120 118 115 112 111 110 109 107 105 104 102 100 98 96 94 92 91 90 89 88 86 85 84 83 82 79 77 73 70 68 68 68 68 67 66 66 66 64 63 62 60 58 56 55 54 53 53 53
65 68 71 74 76 80 82 83 85 87 89 91 93 95 97 100 103 106 108 111 113 115 118 122 125 127 129 131 134 136 137 138 137 133 128 124 121 118 117 115 113 111 110 109 108 107 104 103 102 100 98 97 95 93 92 90 87 86 85 84 83 81 79 76 74 71 68 67 67 67 66 65 64 64 64 63 61 60 60 58 56 55 53 52 51 51
68 71 74 76 79 82 83 85 86 88 91 94 97 99 102 104 106 109 111 114 118 120 122 125 129 132 134 136 138 140 140 139 136 132 127 123 120 117 115 114 112 110 109 109 107 106 104 102 101 101 100 98 96 94 92 88 86 85 84 83 81 79 76 74 72 70 68 67 68 68 66 64 62 62 62 61 60 58 57 57 56 55 53 52 50 50
71 74 77 79 82 83 85 86 88 90 93 97 99 102 105 108 111 113 115 118 122 125 128 131 134 137 139 140 141 140 138 134 130 126 122 118 116 114 113 112 111 110 108 107 105 103 102 100 100 100 100 98 96 93 90 87 84 84 83 82 79 77 75 73 72 69 68 68 69 68 66 64 61 60 60 60 58 56 55 55 54 54 53 51 50 49
74 77 79 82 83 84 86 88 91 94 97 101 103 106 109 113 116 119 122 124 127 131 134 137 139 141 142 142 140 136 132 128 123 119 116 113 111 111 111 110 110 108 106 104 102 101 100 99 98 98 97 96 94 91 88 85 82 81 81 79 77 74 73 73 71 69 68 68 69 68 66 63 61 60 59 58 56 54 53 53 53 53 52 51 49 48
78 79 81 83 85 87 89 91 94 97 101 105 108 111 114 118 122 125 129 131 134 137 139 140 141 141 141 138 134 129 125 121 118 115 113 111 110 110 109 108 107 105 103 101 100 99 98 98 97 95 94 94 92 89 86 84 81 78 77 76 75 73 72 72 71 70 68 68 69 68 65 62 60 60 59 56 54 53 53 53 52 52 51 50 48 47
80 81 83 84 87 90 93 96 98 102 106 109 113 116 119 122 125 129 132 135 137 139 141 141 141 139 136 132 128 123 119 117 115 114 113 112 110 109 107 105 104 103 102 100 98 97 96 94 94 92 91 90 89 87 84 82 79 77 75 73 72 72 72 72 71 70 69 69 69 67 65 62 60 60 58 55 53 53 53 52 51 51 50 49 47 47
81 83 85 87 90 94 97 100 103 106 109 113 116 119 121 124 128 131 134 136 138 139 139 139 136 133 130 126 123 120 117 116 115 114 113 111 109 107 105 103 102 101 100 99 97 94 92 91 90 89 88 86 86 84 82 80 78 76 74 71 70 71 72 72 71 70 69 69 68 67 64 61 60 59 58 55 53 52 52 51 50 49 49 48 46 46
83 85 87 90 94 97 100 103 106 109 112 116 119 121 124 126 129 132 134 136 137 137 136 134 131 127 124 122 121 119 117 116 115 113 111 108 106 105 104 102 101 99 97 96 94 93 90 88 86 85 84 83 82 81 80 78 77 76 74 71 70 70 71 71 70 69 67 67 67 65 63 61 59 59 57 55 53 52 51 50 49 48 47 46 46 46
85 88 91 93 97 100 104 106 108 110 113 117 121 124 126 129 131 133 135 136 135 133 131 127 124 122 121 121 120 119 116 114 112 110 108 106 105 104 103 101 99 97 95 93 92 91 90 87 85 83 82 81 80 78 78 77 77 76 75 72 70 70 71 70 69 67 66 65 65 64 61 59 59 58 57 54 52 51 50 49 48 47 46 45 45 44
89 92 94 97 100 103 106 109 111 113 116 119 123 126 129 131 132 133 133 132 130 127 124 121 119 118 118 119 118 116 112 110 109 107 106 106 105 103 102 100 97 95 94 92 91 90 89 87 85 83 82 81 79 78 77 77 77 76 75 73 70 70 70 68 67 66 64 63 62 62 60 58 57 57 56 53 50 49 49 48 46 45 44 43 43 43
93 96 99 101 104 107 110 114 117 120 122 125 127 130 131 132 131 130 129 127 124 122 120 119 117 115 114 113 113 112 110 108 107 106 105 105 104 102 100 99 96 93 91 89 87 86 86 85 84 83 82 81 80 78 77 77 76 76 74 73 71 69 68 67 66 64 63 61 60 59 57 56 55 54 53 51 49 48 47 47 45 44 43 42 42 41
Wind_Direction
279 282 284 287 290 293 296 295 293 293 294 295 296 298 301 300 297 294 293 292 291 290 288 288 290 289 288 289 289 290 290 291 292 293 294 294 295 296 296 298 300 301 301 302 302 302 302 302 302 301 301 302 304 304 304 303 304 304 304 304 305 305 305 304 303 301 300 300 299 299 299 298 297 296 295 294 294 293 293 292 293 293 293 293 293 293
282 284 286 289 293 296 295 293 292 294 295 296 298 300 303 301 297 295 294 293 292 291 289 289 290 290 289 289 289 291 292 293 294 294 294 295 296 296 298 300 301 301 302 302 302 302 302 301 301 301 302 304 305 304 303 304 304 304 304 305 306 305 304 303 303 302 301 300 300 299 299 298 297 297 296 295 295 294 294 294 294 294 294 294 294 294
283 285 289 293 295 295 293 292 292 293 295 297 299 302 304 302 298 296 295 294 293 292 291 290 291 291 290 290 290 292 293 294 295 294 295 296 297 298 299 301 301 301 302 302 302 301 301 300 300 301 304 306 305 304 304 304 304 305 306 306 305 304 304 303 303 302 301 300 299 299 298 298 297 297 296 295 295 294 294 294 294 294 294 294 294 294
285 288 292 294 295 293 292 292 292 293 295 297 299 302 304 302 298 296 296 295 295 293 291 290 290 290 290 290 290 291 293 295 295 295 297 297 297 299 300 301 301 302 302 302 301 300 300 300 301 303 306 306 304 303 303 304 306 307 307 306 305 304 304 303 303 302 301 300 299 298 298 297 297 296 296 295 295 294 294 294 294 294 294 294 294 294
287 290 293 294 293 292 291 292 293 294 295 297 299 302 304 301 298 297 296 295 295 293 292 291 290 290 290 290 291 292 294 295 295 296 297 297 297 299 300 301 301 301 301 301 300 300 300 301 303 306 306 305 303 303 304 306 307 307 306 305 304 304 303 302 301 301 300 299 299 298 298 297 297 296 296 295 295 294 294 294 294 294 294 294 295 295
289 291 293 293 293 291 291 293 294 294 296 298 299 302 303 299 297 297 296 295 294 292 292 291 291 292 291 290 291 292 294 295 296 297 297 297 298 299 300 301 301 301 301 301 300 299 300 303 306 307 305 304 303 304 307 307 306 305 305 304 303 303 302 301 301 300 300 300 299 299 298 298 297 296 295 295 295 294 294 294 294 294 295 295 295 295
290 293 293 293 292 291 291 293 294 294 296 298 299 302 301 298 297 297 296 296 294 293 293 291 292 294 293 291 292 293 295 296 297 297 297 297 299 299 300 301 301 302 301 300 299 300 303 306 307 306 304 303 304 306 307 306 305 304 304 303 303 302 301 301 301 301 300 300 299 299 298 297 297 296 295 295 295 295 295 295 295 295 295 295 295 294
292 294 294 293 292 291 291 292 293 294 296 297 299 300 299 296 297 297 296 296 294 294 293 292 293 296 296 294 293 295 296 297 297 297 297 298 299 300 301 301 302 301 300 299 301 304 306 307 306 304 303 304 306 306 305 304 304 303 303 303 302 302 302 301 301 300 300 299 299 298 298 298 297 297 297 297 296 296 296 296 295 295 295 295 294 294
294 294 293 292 291 290 291 292 293 294 296 297 298 298 296 296 297 296 297 296 295 295 294 293 294 297 298 296 294 296 297 297 297 297 297 299 300 301 301 302 301 299 299 301 305 307 307 306 304 304 305 305 305 305 304 304 303 303 303 302 302 302 301 301 300 300 299 299 299 299 299 299 298 298 298 298 297 297 296 296 295 295 295 294 294 294
294 294 293 291 291 291 291 293 294 295 296 297 297 296 296 296 296 297 297 296 296 297 296 296 297 298 299 297 296 297 297 297 298 297 298 300 300 301 301 301 299 300 303 306 308 307 306 304 304 305 305 305 305 305 304 303 303 303 303 302 302 302 301 301 301 300 300 300 299 299 299 299 299 298 298 297 297 296 296 295 295 294 294 294 294 293
293 293 292 291 290 291 292 293 294 295 296 296 296 295 296 297 297 298 298 297 298 299 299 300 300 300 300 298 296 297 297 297 297 297 298 299 300 301 301 300 301 304 307 308 307 305 304 304 305 305 304 304 304 303 303 303 303 303 303 303 303 302 302 302 301 301 301 300 300 300 300 299 299 298 298 297 296 296 295 295 294 294 294 293 293 293
292 292 292 291 291 291 292 293 294 295 296 296 296 296 296 297 298 299 300 299 300 302 302 302 302 301 300 298 297 297 297 297 296 297 299 301 302 302 301 302 306 308 308 306 305 304 304 304 304 304 303 303 303 302 302 303 303 303 303 303 303 303 302 302 302 302 302 302 302 301 300 300 299 298 297 296 296 295 295 294 294 294 293 293 294 294
292 292 292 291 292 292 293 294 295 296 296 297 298 298 298 298 298 300 301 300 301 302 303 303 302 301 300 298 297 296 295 296 297 300 303 305 304 303 304 307 308 308 306 304 303 303 304 304 303 303 303 303 303 303 303 303 303 304 304 304 304 303 303 303 303 303 303 302 302 301 300 299 298 297 297 296 296 295 295 294 294 294 293 293 293 293
292 293 293 293 294 294 294 295 296 297 298 299 299 299 301 300 300 301 301 300 302 303 305 304 302 301 300 297 295 294 294 297 302 306 307 306 305 306 307 308 307 306 305 304 304 304 304 303 303 303 303 303 304 304 304 304 304 304 304 304 304 304 304 304 304 303 303 302 301 301 300 299 298 297 297 296 296 295 295 294 294 293 293 293 293 293
291 291 292 293 294 294 295 296 298 299 299 300 300 301 302 302 302 303 303 303 304 305 306 305 302 301 298 295 294 295 299 304 308 310 308 306 306 306 307 307 306 304 304 304 304 304 304 304 305 305 305 306 306 306 306 306 306 306 306 306 305 305 305 304 304 303 303 302 301 300 300 299 298 297 297 296 296 295 295 294 294 293 293 293 293 292
290 291 292 293 294 294 296 297 299 299 300 300 300 301 301 302 303 305 306 306 306 306 307 304 301 299 296 295 297 301 306 310 310 308 306 306 306 306 306 306 305 305 305 306 306 306 306 307 307 307 308 308 308 308 308 307 307 307 307 307 306 305 305 304 304 303 302 302 301 300 299 299 298 297 297 296 296 295 295 294 293 293 293 293 292 292
290 291 292 293 294 295 296 298 299 299 299 299 300 300 301 303 304 305 307 308 307 307 307 304 301 299 296 297 300 305 310 310 308 307 307 306 306 307 307 307 307 308 308 308 308 308 309 309 310 310 310 310 309 309 309 309 308 308 307 307 306 306 305 304 304 303 302 301 300 300 299 298 298 297 296 296 295 295 294 294 293 293 293 292 292 291
292 294 294 294 295 296 297 298 299 299 299 300 301 302 303 304 305 306 308 309 308 308 309 307 306 303 299 299 303 308 310 308 308 308 308 307 308 309 309 309 310 310 310 310 311 311 311 311 311 311 310 310 310 310 310 310 309 309 308 308 307 306 305 304 303 302 301 301 300 299 298 298 297 297 296 296 295 295 295 294 294 293 293 293 292 292
295 296 296 297 297 298 299 299 299 299 301 302 303 303 304 305 307 309 310 309 307 309 311 311 311 306 300 301 307 310 309 309 310 310 309 309 310 310 310 311 311 311 311 312 312 312 312 312 311 311 311 311 311 311 311 311 310 310 309 308 308 306 305 304 303 302 302 301 300 299 299 298 298 297 297 297 296 296 295 295 295 294 294 294 293 293
297 298 298 297 297 298 299 299 299 300 302 303 303 304 306 308 310 311 311 309 309 313 313 313 314 306 300 304 309 310 310 311 311 310 310 310 311 310 310 310 311 311 312 312 312 312 312 312 312 312 312 312 312 312 312 311 311 310 309 308 307 306 305 304 304 303 302 301 301 300 300 299 299 299 299 298 298 297 296 296 295 295 294 294 293 293
299 299 299 297 297 298 299 299 300 301 302 303 304 306 308 311 311 312 312 311 312 315 312 313 314 306 302 307 310 309 311 312 311 311 311 310 310 310 310 310 311 312 312 312 312 312 312 312 313 313 313 313 313 313 312 312 311 310 309 308 307 306 305 304 304 303 303 302 302 302 301 301 301 301 300 300 299 298 297 296 296 295 294 293 293 292
299 299 299 298 299 299 299 300 302 304 306 307 309 311 313 314 313 313 313 312 313 314 312 313 315 308 307 310 311 312 313 313 312 311 311 310 310 310 310 311 312 313 313 313 313 313 314 314 314 314 314 313 313 313 312 311 310 309 308 307 306 305 305 304 304 304 304 303 303 302 302 302 302 301 300 299 299 298 297 297 296 295 294 294 293 293
300 300 300 300 300 299 300 304 309 312 313 313 314 316 316 315 314 313 313 313 314 313 312 314 315 311 310 311 312 314 314 313 312 311 310 310 310 310 311 312 313 314 314 314 314 314 314 314 314 314 314 313 313 313 312 311 310 308 307 307 306 306 305 305 305 304 304 303 302 302 302 302 301 301 300 299 298 298 297 297 296 296 295 295 294 293
301 301 301 301 302 302 307 314 318 318 316 316 317 317 317 315 314 314 314 314 315 314 313 314 315 314 311 310 312 314 313 312 312 311 311 311 311 311 312 314 315 315 315 315 315 315 315 314 314 314 314 314 313 313 312 310 309 308 308 307 307 306 306 305 305 304 303 303 302 302 302 302 302 301 300 299 299 299 298 298 297 297 296 295 294 293
301 300 301 303 303 307 314 319 320 317 316 316 317 317 316 315 314 314 314 315 316 316 315 314 315 316 312 311 313 314 313 313 313 313 313 312 312 313 314 315 315 315 315 314 314 314 314 314 314 314 314 314 313 312 311 310 309 309 308 307 307 306 305 305 304 304 303 303 303 303 303 302 302 301 300 300 300 299 299 298 297 297 296 295 294 294
299 300 302 303 304 309 314 315 314 314 314 315 315 315 315 314 315 314 314 314 315 317 315 313 315 316 312 311 314 315 314 314 314 313 313 313 313 314 315 315 315 315 314 314 314 314 314 314 315 315 315 314 313 312 311 310 309 309 308 307 306 306 305 305 305 304 304 304 303 303 302 302 301 300 300 299 299 298 298 298 297 296 296 295 295 294
298 301 303 304 305 310 311 310 310 311 312 313 314 314 315 315 315 314 314 314 315 316 316 313 314 315 312 312 314 314 314 314 314 313 313 313 313 314 314 315 314 314 314 314 314 315 315 315 315 315 314 314 313 312 311 310 309 308 307 307 306 306 305 305 305 305 305 304 303 303 302 301 300 300 299 298 298 298 297 297 296 295 295 295 294 294
299 301 303 304 305 309 311 309 310 311 311 313 314 314 314 314 314 313 313 314 314 315 316 314 314 315 313 313 314 314 314 314 314 314 314 313 312 313 314 314 314 314 314 315 316 316 316 316 315 315 314 313 313 312 311 310 309 309 308 307 307 307 306 306 306 306 305 305 304 304 303 302 301 300 299 298 297 297 296 296 295 295 294 294 294 293
300 302 304 305 306 309 310 310 311 312 312 313 313 313 313 313 313 314 314 314 314 315 315 315 315 314 313 314 315 314 314 315 314 314 313 312 312 313 314 315 315 315 315 316 316 316 316 316 315 315 314 313 312 311 311 311 310 310 310 309 309 309 308 308 307 307 307 306 306 305 304 303 302 301 300 299 298 297 296 295 295 294 294 294 294 293
300 302 306 308 308 309 311 312 312 313 313 313 313 313 314 314 314 315 314 313 314 315 315 315 315 314 314 315 316 315 315 315 314 313 313 312 312 314 315 315 315 315 316 316 316 316 316 316 315 314 314 313 312 312 312 312 311 311 311 310 309 309 308 308 308 308 307 307 306 304 304 303 302 301 300 299 298 297 296 295 294 294 293 293 293 292
302 304 306 309 309 310 312 313 313 313 313 314 314 314 314 315 315 315 314 313 313 315 315 315 315 315 315 316 316 315 315 314 314 313 313 312 313 314 315 315 315 315 316 316 317 317 316 315 315 314 314 314 313 313 313 312 311 311 310 309 309 308 307 307 306 306 306 306 305 304 303 303 302 301 300 299 298 297 296 295 294 293 292 292 291 291
303 304 306 309 309 310 312 313 312 313 313 314 314 314 314 315 316 315 314 313 313 314 315 315 315 315 315 315 315 315 315 315 314 313 312 312 313 314 314 314 315 316 316 317 317 316 316 315 315 315 315 315 314 313 312 311 311 310 309 308 308 307 306 306 306 307 307 306 305 304 304 303 303 302 300 299 298 297 297 296 295 293 292 291 291 290
304 305 307 308 309 309 310 311 311 312 313 314 314 314 315 316 316 316 315 313 313 315 315 315 315 315 315 314 314 314 314 314 314 313 312 312 313 314 315 315 316 317 317 318 317 317 316 316 316 316 315 314 313 312 311 310 310 310 309 308 307 307 307 307 308 309 309 307 306 305 304 304 303 302 301 300 299 298 297 296 294 293 292 291 290 289
304 305 307 308 309 309 309 310 310 311 313 315 315 314 315 315 315 315 314 313 313 315 315 315 315 315 315 314 314 314 314 314 314 313 312 312 314 315 316 316 317 317 318 318 317 317 317 317 316 316 315 313 312 312 311 310 310 310 309 309 308 308 308 309 309 310 309 308 306 305 305 305 304 303 302 301 300 299 298 296 294 293 292 291 290 289
304 306 307 308 308 308 308 309 310 312 314 314 314 314 314 314 314 315 314 313 313 315 315 315 315 314 314 313 313 313 314 315 314 313 312 313 314 315 315 316 317 317 317 317 317 317 316 316 316 315 314 313 312 312 311 311 311 311 311 310 309 309 309 309 310 310 310 308 306 305 305 306 305 304 303 303 302 301 299 297 295 293 293 292 291 289
305 306 307 307 308 308 310 311 312 313 314 314 313 313 314 314 314 314 315 313 313 313 313 313 313 313 313 313 313 313 314 315 315 313 312 312 313 314 315 316 317 317 317 317 317 317 316 315 315 314 313 313 312 312 311 311 312 312 312 311 310 310 309 310 310 311 310 309 307 306 306 306 306 305 304 304 304 303 300 297 295 293 293 292 291 289
307 307 307 308 309 310 311 312 313 314 314 314 313 313 314 314 313 313 313 312 311 311 312 312 312 312 312 313 313 313 314 315 315 313 311 312 313 314 315 317 317 317 318 318 317 317 316 315 315 314 314 313 313 312 312 312 312 313 312 311 310 310 310 310 311 311 311 309 308 307 306 307 306 305 304 304 304 303 301 299 295 294 293 292 290 289
308 307 308 309 311 312 313 313 313 314 314 313 313 313 313 313 312 312 313 312 312 312 312 312 312 312 313 313 313 313 313 313 314 313 312 313 314 315 317 317 317 317 317 317 317 317 316 316 315 315 314 314 313 313 312 312 313 313 312 311 310 310 310 311 311 311 311 310 308 307 307 307 307 306 305 304 303 302 300 298 295 293 292 291 290 289
308 309 310 312 313 313 314 314 314 314 313 312 312 313 313 313 312 312 313 313 312 312 312 312 313 313 313 313 312 312 312 313 315 315 315 316 316 317 317 317 317 317 317 317 317 317 317 316 316 315 314 314 313 313 313 313 313 313 312 311 310 310 310 311 311 311 310 309 308 307 307 307 307 306 305 304 303 301 299 297 295 292 291 290 289 288
309 311 312 313 314 314 314 314 314 314 313 312 312 312 313 312 312 312 313 313 313 313 312 312 312 312 312 312 312 313 314 315 317 319 319 318 318 318 317 317 318 318 317 317 316 316 316 316 315 314 314 314 313 313 313 313 313 313 312 311 310 310 311 311 311 310 310 309 307 306 306 307 307 306 304 304 303 301 299 297 295 293 291 290 289 288
311 312 313 313 314 313 313 313 313 313 313 312 312 312 312 312 312 313 313 313 312 312 312 312 312 312 312 313 314 315 316 317 319 320 320 319 319 318 318 317 317 317 316 316 316 316 316 315 315 314 314 314 313 313 313 313 314 313 312 311 310 310 310 310 310 309 309 308 307 306 307 307 307 305 304 303 301 299 297 296 296 294 293 291 290 288
311 312 312 313 312 312 312 313 312 312 312 311 312 312 312 312 312 312 312 312 312 312 312 312 312 313 314 315 316 317 317 318 318 318 318 318 318 317 317 316 316 316 316 316 316 316 316 315 315 315 314 314 313 313 313 313 313 313 311 311 310 310 310 310 309 309 309 308 307 307 307 307 307 305 303 301 299 297 296 296 296 295 294 293 291 288
311 312 312 312 312 312 312 312 312 312 311 311 311 312 312 312 311 311 312 312 312 312 313 314 314 315 316 316 317 317 316 316 316 316 316 317 317 316 316 316 317 317 316 316 316 315 315 315 315 314 313 313 313 313 313 313 313 312 311 310 310 310 310 310 309 309 309 309 308 307 308 308 307 305 303 300 298 297 296 296 295 294 294 292 290 288
311 311 311 311 311 311 311 311 311 311 311 311 311 312 312 312 312 313 313 314 314 314 315 315 316 316 316 316 316 316 316 316 316 316 316 316 317 317 317 317 316 316 316 315 315 315 315 314 314 313 313 312 312 312 312 312 312 312 311 310 310 311 310 309 309 309 309 309 308 307 308 308 308 306 303 300 298 297 297 296 295 294 293 292 290 288
311 311 311 311 311 311 311 311 311 311 311 312 313 313 314 314 314 314 315 315 315 315 315 315 315 314 315 315 315 316 316 316 316 317 317 318 318 317 317 316 316 315 315 315 315 315 314 314 313 313 312 312 311 312 312 312 311 311 310 310 310 310 310 309 309 309 310 309 308 307 308 309 308 306 303 301 300 299 298 296 295 294 293 291 290 288
311 312 312 312 311 311 311 312 312 313 314 314 314 315 315 315 314 315 315 314 314 314 313 313 314 314 315 316 316 317 317 317 318 318 318 318 318 317 316 316 316 315 315 315 314 314 314 313 313 312 312 311 311 311 311 311 311 310 309 310 310 310 310 309 309 310 310 309 308 308 309 309 308 305 303 302 301 299 297 296 294 293 292 291 290 287
312 312 311 311 311 312 313 314 314 315 315 314 314 314 314 314 313 313 312 312 312 312 312 313 314 315 316 316 317 318 318 319 319 319 318 318 317 317 316 316 316 315 315 315 314 314 313 313 312 312 311 311 311 311 311 311 310 309 309 310 310 310 309 309 309 310 310 309 308 308 309 309 307 305 303 303 301 298 296 295 294 293 292 291 289 287
311 311 312 312 313 313 314 314 315 315 314 314 314 313 312 311 311 310 310 310 311 312 313 314 315 316 317 317 318 319 319 319 318 318 317 317 317 317 317 316 316 316 315 315 314 314 313 313 312 312 312 311 311 311 311 310 310 309 309 310 310 309 309 308 309 310 309 309 308 308 308 308 306 304 303 303 300 298 296 294 293 292 291 290 288 285
311 311 312 313 313 314 314 314 314 313 312 311 311 310 310 309 309 310 310 311 313 314 315 315 316 317 318 318 318 319 319 318 317 317 317 318 317 317 317 317 316 316 316 316 315 315 314 314 313 313 312 312 312 311 311 311 310 310 310 310 311 310 309 309 309 309 309 308 308 307 308 307 305 303 302 301 299 297 295 294 293 292 290 289 287 284
312 313 313 314 314 314 313 312 312 311 310 309 309 309 310 310 310 311 312 313 314 315 316 317 318 318 318 317 317 317 317 317 317 318 318 318 318 318 317 317 317 317 317 317 317 316 315 315 315 314 313 313 312 312 311 311 310 310 310 311 311 310 310 310 309 309 309 308 307 307 307 306 304 302 301 300 298 296 295 294 293 291 290 288 286 283
313 314 314 314 313 312 312 311 311 311 310 310 311 311 311 311 312 312 314 315 316 316 317 318 318 318 317 316 316 317 318 319 319 319 319 319 319 318 318 318 318 318 317 317 316 316 316 315 315 314 314 313 313 312 312 311 311 311 311 312 312 311 310 310 309 309 309 308 307 307 307 305 302 300 300 299 298 296 295 294 293 292 290 289 286 284